Regional Weather Roundup
Issued by NWS

Home | Current Version | Previous Version | Graphics & Text | Print | Product List | Glossary On
Versions: 1 2 3 4 5 6 7 8 9 10 11 12 13 14 15 16 17 18 19 20 21 22 23 24 25 26 27 28 29 30 31 32 33 34 35 36 37 38 39 40 41 42 43 44 45 46 47 48 49 50
000
ASUS45 KABQ 210810
RWRNM
WEATHER ROUNDUP FOR NEW MEXICO
NATIONAL WEATHER SERVICE ALBUQUERQUE NM
200 AM MDT TUE APR 21 2015

NOTE: "FAIR" MEANS FEW OR NO CLOUDS BELOW 12,000 FEET AGL WITH NO
       SIGNIFICANT WEATHER OR OBSTRUCTIONS TO VISION.

      THIS PRODUCT IS RELEASED AS TWO VERSIONS.  ONE VERSION NEAR
      THE TOP OF THE HOUR CONTAINING PRELIMINARY DATA FROM ALBUQUERQUE
      AND OTHER STATIONS.  A FINAL VERSION WITH ADDITIONAL DATA IS
      ISSUED ABOUT 10 MINUTES AFTER THE HOUR.

NMZ501-503-504-510>518-210900-
NORTHWEST PLATEAU/NORTHCENTRAL MOUNTAINS

CITY           SKY/WX    TMP DP  RH WIND       PRES   REMARKS
FARMINGTON     CLEAR     40  24  53 E5        29.95F
LOS ALAMOS     PTCLDY    49  18  29 NW5       30.04F
SANTA FE       PTCLDY    44  25  47 N3        29.99F
TAOS           CLEAR     28  14  54 CALM      30.06S
ANGEL FIRE     FAIR      21  19  90 CALM      30.10S

$$
NMZ402-403-502-505>509-210900-
WESTCENTRAL MOUNTAINS/SOUTHWEST MOUNTAINS

CITY           SKY/WX    TMP DP  RH WIND       PRES   REMARKS
GALLUP         CLEAR     36  15  42 CALM      30.02S
GRANTS         CLEAR     37  19  46 CALM      30.04S
SILVER CITY    PTCLDY    54  18  24 N13       30.00S

$$
NMZ407-409-411-412-210900-
SOUTHERN DESERTS

CITY           SKY/WX    TMP DP  RH WIND       PRES   REMARKS
LORDSBURG      FAIR      63  19  19 SW13      29.93F
DEMING         CLEAR     51  20  29 S3        29.95R
LAS CRUCES     PTCLDY    58  19  22 W6        29.95S
HOLLOMAN AFB   PTCLDY    58  25  27 SW6       29.91R
ALAMOGORDO     PTCLDY    55  25  30 CALM      29.92S
T OR C         PTCLDY    54  23  30 W9        29.95R

$$
NMZ519>523-210900-
CENTRAL VALLEYS/CENTRAL HIGHLANDS

CITY           SKY/WX    TMP DP  RH WIND       PRES   REMARKS
ALBUQUERQUE    PTCLDY    51  24  34 CALM      29.97S
DOUBLE EAGLE   CLEAR     43  24  47 W10       29.99S
MORIARTY ARPT  FAIR      46  20  36 W8        30.01S
CLINES CORNERS PTCLDY    43  21  41 W12       30.01F
BELEN          FAIR      46  24  42 SW9       29.96F
SOCORRO        FAIR      49  21  33 SW3       29.95F

$$
NMZ524>526-539-540-210900-
SOUTHCENTRAL MOUNTAINS

CITY           SKY/WX    TMP DP  RH WIND       PRES   REMARKS
RUIDOSO        PTCLDY    46  25  42 SW9       30.05S

$$
NMZ527>531-210900-
NORTHEAST HIGHLANDS/NORTHEAST PLAINS

CITY           SKY/WX    TMP DP  RH WIND       PRES   REMARKS
LAS VEGAS      PTCLDY    39  33  79 N5        30.02F
RATON          CLEAR     39  34  82 N3        30.02S
CLAYTON        PTCLDY    42  39  89 NW6       30.00R

$$
NMZ532>537-210900-
EASTCENTRAL PLAINS

CITY           SKY/WX    TMP DP  RH WIND       PRES   REMARKS
TUCUMCARI      CLEAR     44  41  89 NW6       29.93S
CANNON AFB     CLEAR     47  38  70 E3        29.93S
CLOVIS AIRPORT CLEAR     46  36  66 SE6       29.93S

$$
NMZ028-029-538-210900-
SOUTHEAST PLAINS

CITY           SKY/WX    TMP DP  RH WIND       PRES   REMARKS
ROSWELL        PTCLDY    55  41  59 S10       29.91F
ARTESIA        CLEAR     52  41  66 CALM      29.93R
CARLSBAD       CLEAR     53  43  68 S5        29.91R
HOBBS          PTCLDY    50  43  76 NE7       29.96F


$$


USA.gov is the U.S. government's official web portal to all federal, state and local government web resources and services.